Flag for U.S.A. Weather past 2 weeks in Anchorage, Alaska, U.S.A.

Now
10 °F

Partly sunny.


Feels Like: 0 °F
Forecast: 3 / 16 °F
Wind: 6 mph from East

Location: Lake Hood Seaplane

Current Time: Jan 29, 2015 at 12:02:13 PM

Latest Report: Jan 29, 2015 at 10:53 AM


Visibility: 10 mi

Pressure: 30.09 "Hg

Humidity: 69%

Dew point: 2 °F

Location of AnchorageLocation

Historic Weather in Anchorage — Graph

°F

Anchorage temperature yesterday

Maximum temperature yesterday: 14 °F (at 2:53 PM)
Minimum temperature yesterday: 5 °F (at 8:53 PM)
Average temperature yesterday: 9 °F

Past Weeks' High & Low Weather Summary

 TemperatureHumidityPressure
High42 °F (Jan 15, 3:53 PM)89% (Jan 19, 1:53 AM)30.12 "Hg (Jan 19, 1:53 AM)
Low-3 °F (Jan 26, 6:53 AM)40% (Jan 24, 8:53 PM)28.79 "Hg (Jan 15, 3:53 PM)
Average19 °F73%29.53 "Hg
* Reported Jan 14 10:53 AM — Jan 29 10:53 AM, Anchorage, Weather by CustomWeather, © 2014

Note: Actual official high and low records may vary slightly from our data, if they occured in-between our weather recording intervals... More about our weather records

Advertising

Anchorage weather history for previous 24 hours

 ConditionsComfort  
Time TempWeatherWind HumidityBarometerVisibility
10:53 AM
Jan 29
10 °FPartly sunny.6 mph69%30.09 "Hg10 mi
9:53 AM8 °FSunny.5 mph72%30.07 "Hg10 mi
8:53 AM7 °FClear.3 mph76%30.05 "Hg10 mi
7:53 AM8 °FClear.3 mph69%30.04 "Hg10 mi
6:53 AM7 °FClear.5 mph73%30.03 "Hg10 mi
5:53 AM7 °FClear.5 mph76%30.02 "Hg10 mi
4:53 AM9 °FClear.5 mph70%30.01 "Hg10 mi
3:53 AM8 °FClear.5 mph72%30.01 "Hg10 mi
2:53 AM9 °FClear.5 mph70%30.01 "Hg10 mi
1:53 AM8 °FClear.6 mph72%30.01 "Hg10 mi
12:53 AM7 °FClear.5 mph73%30.00 "Hg10 mi
11:53 PM
Jan 28
7 °FClear.5 mph73%30.00 "Hg10 mi
10:53 PM7 °FClear.5 mph73%30.00 "Hg10 mi
9:53 PM7 °FClear.3 mph73%29.99 "Hg10 mi
8:53 PM5 °FClear.No wind76%30.00 "Hg10 mi
7:53 PM7 °FClear.No wind76%30.00 "Hg10 mi
6:53 PM8 °FClear.No wind72%30.01 "Hg10 mi
5:53 PM8 °FClear.No wind72%30.01 "Hg10 mi
4:53 PM13 °FSunny.6 mph61%30.02 "Hg10 mi
3:53 PM13 °FSunny.9 mph61%30.03 "Hg10 mi
2:53 PM14 °FSunny.7 mph58%30.05 "Hg10 mi
1:53 PM13 °FSunny.8 mph56%30.07 "Hg10 mi
12:53 PM13 °FSunny.8 mph61%30.09 "Hg10 mi
Weather by CustomWeather, © 2014

See weather overviewHow to use our weather pages